LUJ301 EDDK-LSZA

Flight info

Callsign LUJ301
Flight time 1h 35m
Altitude 23000
Route COL DCT DODEN Y852 EDISA Y173 PABLA Y163 NATOR N850 ODINA
Aircraft PC12/L-SBDFGRWY/S

Departure

Time 2026-05-06 15:17
Airport Cologne Bonn Airport (EDDK)

Arrival

Time 2026-05-06 16:52
Airport Lugano Airport (LSZA)
Time Latitude Longitude Altitude Speed Heading
2026-05-06 14:46 50.87086 7.12718 231 ft 0 kts 340°
2026-05-06 14:51 50.87085 7.12718 231 ft 0 kts 340°
2026-05-06 14:53 50.87078 7.12720 230 ft 2 kts 12°
2026-05-06 14:53 50.87069 7.12710 230 ft 2 kts 49°
2026-05-06 14:53 50.87055 7.12685 230 ft 3 kts 48°
2026-05-06 14:54 50.87039 7.12657 230 ft 3 kts 47°
2026-05-06 14:54 50.87023 7.12630 230 ft 4 kts 48°
2026-05-06 14:54 50.87007 7.12603 230 ft 3 kts 47°
2026-05-06 14:54 50.87000 7.12587 230 ft 2 kts 63°
2026-05-06 14:55 50.86997 7.12571 230 ft 2 kts 97°
2026-05-06 14:55 50.87000 7.12561 230 ft 1 kts 129°
2026-05-06 14:57 50.86998 7.12565 231 ft 0 kts 129°
2026-05-06 15:01 50.86989 7.12577 231 ft 6 kts 142°
2026-05-06 15:01 50.86947 7.12638 232 ft 10 kts 137°
2026-05-06 15:01 50.86893 7.12717 234 ft 11 kts 137°
2026-05-06 15:01 50.86830 7.12803 235 ft 13 kts 135°
2026-05-06 15:02 50.86765 7.12904 238 ft 14 kts 136°
2026-05-06 15:02 50.86692 7.13005 240 ft 14 kts 137°
2026-05-06 15:02 50.86616 7.13116 243 ft 15 kts 137°
2026-05-06 15:02 50.86539 7.13229 245 ft 12 kts 137°
2026-05-06 15:03 50.86528 7.13246 245 ft 0 kts 137°
2026-05-06 15:05 50.86528 7.13245 245 ft 0 kts 137°
2026-05-06 15:11 50.86523 7.13252 245 ft 5 kts 137°
2026-05-06 15:11 50.86491 7.13299 245 ft 0 kts 134°
2026-05-06 15:12 50.86497 7.13344 246 ft 11 kts 66°
2026-05-06 15:12 50.86541 7.13494 245 ft 18 kts 64°
2026-05-06 15:12 50.86600 7.13688 245 ft 21 kts 64°
2026-05-06 15:12 50.86662 7.13895 250 ft 21 kts 64°
2026-05-06 15:13 50.86724 7.14098 251 ft 17 kts 69°
2026-05-06 15:13 50.86669 7.14231 256 ft 15 kts 137°
2026-05-06 15:13 50.86583 7.14356 258 ft 18 kts 137°
2026-05-06 15:13 50.86485 7.14499 263 ft 20 kts 138°
2026-05-06 15:14 50.86381 7.14648 269 ft 21 kts 137°
2026-05-06 15:14 50.86275 7.14802 275 ft 21 kts 137°
2026-05-06 15:14 50.86164 7.14963 281 ft 22 kts 137°
2026-05-06 15:14 50.86092 7.15067 284 ft 13 kts 138°
2026-05-06 15:15 50.86044 7.15184 286 ft 13 kts 96°
2026-05-06 15:15 50.86074 7.15325 287 ft 14 kts 39°
2026-05-06 15:15 50.86162 7.15352 286 ft 13 kts 352°
2026-05-06 15:15 50.86256 7.15324 284 ft 15 kts 346°
2026-05-06 15:16 50.86376 7.15271 281 ft 22 kts 336°
2026-05-06 15:16 50.86565 7.15048 273 ft 55 kts 319°
2026-05-06 15:16 50.86947 7.14501 257 ft 90 kts 318°
2026-05-06 15:16 50.87458 7.13781 409 ft 103 kts 316°
2026-05-06 15:17 50.87991 7.13034 756 ft 102 kts 317°
2026-05-06 15:17 50.88503 7.12294 1156 ft 100 kts 315°
2026-05-06 15:17 50.89076 7.11655 1570 ft 103 kts 346°
2026-05-06 15:17 50.89772 7.11779 2028 ft 104 kts 15°
2026-05-06 15:18 50.90463 7.12146 2511 ft 105 kts 14°
2026-05-06 15:18 50.91162 7.12517 3001 ft 107 kts 15°
2026-05-06 15:18 50.91866 7.12892 3518 ft 107 kts 15°
2026-05-06 15:18 50.92580 7.13274 4022 ft 110 kts 15°
2026-05-06 15:19 50.93308 7.13741 4455 ft 119 kts 34°
2026-05-06 15:19 50.93796 7.14847 4920 ft 128 kts 61°
2026-05-06 15:19 50.94207 7.16157 5283 ft 142 kts 61°
2026-05-06 15:19 50.94693 7.17689 5457 ft 169 kts 62°
2026-05-06 15:20 50.95227 7.19383 5959 ft 171 kts 62°
2026-05-06 15:20 50.95763 7.21077 6486 ft 173 kts 63°
2026-05-06 15:20 50.96310 7.22803 6959 ft 177 kts 63°
2026-05-06 15:20 50.96866 7.24557 7427 ft 179 kts 63°
2026-05-06 15:21 50.97428 7.26333 7898 ft 181 kts 64°
2026-05-06 15:21 50.97995 7.28127 8368 ft 183 kts 64°
2026-05-06 15:21 50.98568 7.29943 8838 ft 185 kts 64°
2026-05-06 15:21 50.99142 7.31759 9296 ft 188 kts 65°
2026-05-06 15:22 50.99733 7.33632 9751 ft 191 kts 65°
2026-05-06 15:22 51.00329 7.35524 10159 ft 193 kts 65°
2026-05-06 15:22 51.00934 7.37444 10579 ft 195 kts 65°
2026-05-06 15:22 51.01544 7.39381 11016 ft 196 kts 65°
2026-05-06 15:23 51.01948 7.41436 11422 ft 196 kts 88°
2026-05-06 15:23 51.01827 7.43560 11877 ft 192 kts 110°
2026-05-06 15:23 51.01430 7.45591 12349 ft 194 kts 112°
2026-05-06 15:23 51.01027 7.47654 12893 ft 197 kts 111°
2026-05-06 15:24 51.00617 7.49759 13368 ft 200 kts 112°
2026-05-06 15:24 51.00204 7.51873 13819 ft 201 kts 112°
2026-05-06 15:24 50.99787 7.54003 14247 ft 202 kts 112°
2026-05-06 15:24 50.99368 7.56139 14674 ft 203 kts 112°
2026-05-06 15:25 50.98946 7.58288 15093 ft 204 kts 111°
2026-05-06 15:25 50.98522 7.60447 15510 ft 205 kts 111°
2026-05-06 15:25 50.98097 7.62609 15931 ft 206 kts 111°
2026-05-06 15:25 50.97669 7.64782 16321 ft 207 kts 111°
2026-05-06 15:26 50.97237 7.66974 16693 ft 208 kts 111°
2026-05-06 15:26 50.96804 7.69168 17054 ft 209 kts 112°
2026-05-06 15:26 50.96368 7.71372 17422 ft 210 kts 112°
2026-05-06 15:26 50.95929 7.73596 17789 ft 211 kts 112°
2026-05-06 15:27 50.95488 7.75823 18146 ft 212 kts 112°
2026-05-06 15:27 50.95045 7.78058 18458 ft 213 kts 112°
2026-05-06 15:27 50.94604 7.80280 18771 ft 214 kts 112°
2026-05-06 15:27 50.94063 7.82458 19079 ft 211 kts 126°
2026-05-06 15:28 50.93257 7.84393 19380 ft 211 kts 129°
2026-05-06 15:28 50.92446 7.86333 19685 ft 211 kts 129°
2026-05-06 15:28 50.91637 7.88279 19981 ft 212 kts 129°
2026-05-06 15:28 50.90818 7.90241 20280 ft 214 kts 129°
2026-05-06 15:29 50.89996 7.92210 20603 ft 215 kts 129°
2026-05-06 15:29 50.89167 7.94181 20918 ft 216 kts 129°
2026-05-06 15:29 50.88332 7.96168 21235 ft 217 kts 129°
2026-05-06 15:29 50.87499 7.98175 21548 ft 218 kts 129°
2026-05-06 15:30 50.86659 8.00189 21877 ft 220 kts 129°
2026-05-06 15:30 50.85810 8.02212 22186 ft 221 kts 129°
2026-05-06 15:30 50.84953 8.04253 22495 ft 223 kts 129°
2026-05-06 15:30 50.83931 8.06042 22790 ft 218 kts 148°
2026-05-06 15:31 50.82578 8.07188 22806 ft 223 kts 167°
2026-05-06 15:31 50.81062 8.07574 22817 ft 226 kts 182°
2026-05-06 15:31 50.79468 8.07696 22812 ft 232 kts 182°
2026-05-06 15:32 50.76161 8.07975 22811 ft 242 kts 181°
2026-05-06 15:32 50.74463 8.08122 22808 ft 246 kts 181°
2026-05-06 15:32 50.72745 8.08268 22808 ft 248 kts 181°
2026-05-06 15:32 50.71012 8.08415 22810 ft 250 kts 181°
2026-05-06 15:33 50.69265 8.08563 22808 ft 252 kts 181°
2026-05-06 15:33 50.67512 8.08713 22808 ft 252 kts 181°
2026-05-06 15:33 50.65754 8.08862 22808 ft 253 kts 181°
2026-05-06 15:33 50.63989 8.09011 22808 ft 254 kts 181°
2026-05-06 15:34 50.62245 8.09159 22806 ft 254 kts 181°
2026-05-06 15:34 50.60471 8.09310 22808 ft 255 kts 181°
2026-05-06 15:34 50.58699 8.09563 22801 ft 255 kts 180°
2026-05-06 15:34 50.56928 8.09781 22802 ft 255 kts 180°
2026-05-06 15:35 50.55156 8.09993 22798 ft 256 kts 180°
2026-05-06 15:35 50.53383 8.10226 22799 ft 256 kts 180°
2026-05-06 15:35 50.51608 8.10465 22800 ft 256 kts 180°
2026-05-06 15:35 50.49834 8.10699 22798 ft 256 kts 180°
2026-05-06 15:36 50.48058 8.10931 22795 ft 256 kts 180°
2026-05-06 15:36 50.46281 8.11163 22793 ft 256 kts 179°
2026-05-06 15:36 50.44501 8.11397 22792 ft 256 kts 179°
2026-05-06 15:36 50.42722 8.11630 22790 ft 257 kts 179°
2026-05-06 15:37 50.40941 8.11863 22788 ft 257 kts 179°
2026-05-06 15:37 50.39178 8.12093 22786 ft 257 kts 179°
2026-05-06 15:37 50.37392 8.12326 22785 ft 257 kts 179°
2026-05-06 15:37 50.35605 8.12560 22787 ft 257 kts 179°
2026-05-06 15:38 50.33823 8.12792 22789 ft 258 kts 179°
2026-05-06 15:38 50.32020 8.13026 22785 ft 259 kts 179°
2026-05-06 15:38 50.30224 8.13261 22784 ft 259 kts 179°
2026-05-06 15:38 50.28429 8.13495 22783 ft 259 kts 179°
2026-05-06 15:39 50.26636 8.13728 22785 ft 259 kts 178°
2026-05-06 15:39 50.24839 8.13961 22787 ft 259 kts 178°
2026-05-06 15:39 50.23041 8.14194 22785 ft 260 kts 178°
2026-05-06 15:39 50.21238 8.14428 22787 ft 260 kts 178°
2026-05-06 15:40 50.19439 8.14661 22784 ft 260 kts 178°
2026-05-06 15:40 50.17633 8.14895 22787 ft 259 kts 178°
2026-05-06 15:40 50.15838 8.15128 22787 ft 259 kts 178°
2026-05-06 15:40 50.14042 8.15360 22785 ft 258 kts 178°
2026-05-06 15:41 50.12275 8.15593 22785 ft 258 kts 177°
2026-05-06 15:41 50.10487 8.15847 22782 ft 258 kts 177°
2026-05-06 15:41 50.08703 8.16102 22787 ft 258 kts 177°
2026-05-06 15:41 50.06911 8.16352 22789 ft 258 kts 177°
2026-05-06 15:42 50.05119 8.16600 22785 ft 258 kts 177°
2026-05-06 15:42 50.03332 8.16849 22788 ft 257 kts 177°
2026-05-06 15:42 50.02150 8.17014 22789 ft 257 kts 177°
2026-05-06 15:42 50.00370 8.17262 22782 ft 256 kts 177°
2026-05-06 15:43 49.98596 8.17509 22783 ft 256 kts 177°
2026-05-06 15:43 49.96830 8.17754 22784 ft 255 kts 176°
2026-05-06 15:43 49.95057 8.18000 22785 ft 255 kts 176°
2026-05-06 15:43 49.93289 8.18246 22787 ft 255 kts 176°
2026-05-06 15:44 49.91521 8.18491 22782 ft 255 kts 176°
2026-05-06 15:44 49.89750 8.18737 22783 ft 255 kts 176°
2026-05-06 15:44 49.87986 8.18981 22777 ft 255 kts 176°
2026-05-06 15:44 49.86223 8.19224 22780 ft 255 kts 176°
2026-05-06 15:45 49.84454 8.19469 22783 ft 255 kts 176°
2026-05-06 15:45 49.82691 8.19713 22778 ft 254 kts 176°
2026-05-06 15:45 49.80929 8.19956 22784 ft 254 kts 176°
2026-05-06 15:45 49.79162 8.20200 22787 ft 256 kts 176°
2026-05-06 15:46 49.77377 8.20445 22790 ft 259 kts 176°
2026-05-06 15:46 49.75577 8.20693 22788 ft 261 kts 175°
2026-05-06 15:46 49.73772 8.20942 22778 ft 261 kts 176°
2026-05-06 15:46 49.71963 8.21191 22777 ft 259 kts 176°
2026-05-06 15:47 49.70168 8.21438 22774 ft 258 kts 176°
2026-05-06 15:47 49.68386 8.21683 22773 ft 256 kts 176°
2026-05-06 15:47 49.66635 8.21923 22771 ft 256 kts 176°
2026-05-06 15:47 49.64866 8.22166 22774 ft 255 kts 176°
2026-05-06 15:48 49.63097 8.22408 22770 ft 255 kts 176°
2026-05-06 15:48 49.61334 8.22649 22772 ft 254 kts 176°
2026-05-06 15:48 49.59568 8.22891 22771 ft 254 kts 176°
2026-05-06 15:48 49.57803 8.23132 22768 ft 254 kts 176°
2026-05-06 15:49 49.56041 8.23373 22768 ft 254 kts 176°
2026-05-06 15:49 49.54282 8.23613 22768 ft 254 kts 176°
2026-05-06 15:49 49.52522 8.23854 22767 ft 254 kts 176°
2026-05-06 15:49 49.50765 8.24093 22771 ft 254 kts 176°
2026-05-06 15:50 49.49005 8.24333 22770 ft 254 kts 176°
2026-05-06 15:50 49.47247 8.24572 22774 ft 254 kts 176°
2026-05-06 15:50 49.45490 8.24811 22769 ft 253 kts 176°
2026-05-06 15:50 49.43756 8.25047 22770 ft 253 kts 176°
2026-05-06 15:51 49.41997 8.25286 22773 ft 253 kts 176°
2026-05-06 15:51 49.40242 8.25524 22775 ft 253 kts 176°
2026-05-06 15:51 49.38486 8.25763 22772 ft 253 kts 176°
2026-05-06 15:51 49.36729 8.26001 22771 ft 253 kts 176°
2026-05-06 15:52 49.34967 8.26239 22772 ft 253 kts 176°
2026-05-06 15:52 49.33213 8.26477 22775 ft 253 kts 176°
2026-05-06 15:52 49.31458 8.26714 22775 ft 254 kts 176°
2026-05-06 15:52 49.29695 8.26952 22780 ft 253 kts 176°
2026-05-06 15:53 49.27942 8.27189 22778 ft 253 kts 176°
2026-05-06 15:53 49.26189 8.27426 22785 ft 253 kts 176°
2026-05-06 15:53 49.24436 8.27662 22783 ft 253 kts 176°
2026-05-06 15:53 49.22704 8.27896 22787 ft 253 kts 176°
2026-05-06 15:54 49.20953 8.28131 22787 ft 253 kts 176°
2026-05-06 15:54 49.19200 8.28368 22789 ft 252 kts 175°
2026-05-06 15:54 49.17456 8.28602 22793 ft 252 kts 175°
2026-05-06 15:54 49.15705 8.28837 22793 ft 252 kts 175°
2026-05-06 15:55 49.13956 8.29072 22798 ft 252 kts 175°
2026-05-06 15:55 49.12206 8.29307 22796 ft 252 kts 175°
2026-05-06 15:55 49.10461 8.29541 22798 ft 252 kts 175°
2026-05-06 15:55 49.08716 8.29775 22801 ft 252 kts 175°
2026-05-06 15:56 49.06972 8.30009 22802 ft 252 kts 175°
2026-05-06 15:56 49.05223 8.30243 22801 ft 252 kts 175°
2026-05-06 15:56 49.03479 8.30476 22803 ft 252 kts 175°
2026-05-06 15:56 49.01734 8.30709 22805 ft 251 kts 175°
2026-05-06 15:57 48.99991 8.30942 22806 ft 251 kts 175°
2026-05-06 15:57 48.98255 8.31226 22811 ft 250 kts 172°
2026-05-06 15:57 48.96551 8.31591 22809 ft 250 kts 173°
2026-05-06 15:57 48.94820 8.31931 22815 ft 251 kts 173°
2026-05-06 15:58 48.93092 8.32279 22814 ft 251 kts 172°
2026-05-06 15:58 48.91357 8.32639 22812 ft 251 kts 172°
2026-05-06 15:58 48.89631 8.32996 22815 ft 251 kts 172°
2026-05-06 15:58 48.87891 8.33353 22818 ft 251 kts 172°
2026-05-06 15:59 48.86159 8.33708 22817 ft 251 kts 172°
2026-05-06 15:59 48.84426 8.34063 22820 ft 251 kts 172°
2026-05-06 15:59 48.82689 8.34419 22819 ft 251 kts 172°
2026-05-06 15:59 48.80954 8.34774 22820 ft 251 kts 172°
2026-05-06 16:00 48.79215 8.35071 22820 ft 251 kts 178°
2026-05-06 16:00 48.77486 8.34715 22820 ft 251 kts 192°
2026-05-06 16:00 48.75813 8.34091 22825 ft 251 kts 193°
2026-05-06 16:00 48.74112 8.33463 22826 ft 252 kts 192°
2026-05-06 16:01 48.72411 8.32844 22826 ft 252 kts 192°
2026-05-06 16:01 48.70708 8.32225 22826 ft 252 kts 192°
2026-05-06 16:01 48.69012 8.31606 22829 ft 252 kts 192°
2026-05-06 16:01 48.67301 8.30981 22828 ft 251 kts 192°
2026-05-06 16:02 48.65602 8.30363 22828 ft 251 kts 192°
2026-05-06 16:02 48.63903 8.29744 22832 ft 251 kts 192°
2026-05-06 16:02 48.62234 8.29137 22835 ft 251 kts 192°
2026-05-06 16:02 48.60506 8.28509 22829 ft 251 kts 192°
2026-05-06 16:03 48.58815 8.27894 22845 ft 250 kts 192°
2026-05-06 16:03 48.57125 8.27281 22844 ft 249 kts 192°
2026-05-06 16:03 48.55433 8.26667 22847 ft 249 kts 192°
2026-05-06 16:03 48.53768 8.26063 22844 ft 250 kts 192°
2026-05-06 16:04 48.52075 8.25450 22842 ft 250 kts 192°
2026-05-06 16:04 48.50379 8.24836 22848 ft 250 kts 192°
2026-05-06 16:04 48.48663 8.24530 22852 ft 248 kts 176°
2026-05-06 16:04 48.46959 8.24880 22855 ft 248 kts 170°
2026-05-06 16:05 48.45252 8.25304 22852 ft 248 kts 170°
2026-05-06 16:05 48.43543 8.25718 22850 ft 248 kts 171°
2026-05-06 16:05 48.41843 8.26128 22858 ft 249 kts 171°
2026-05-06 16:05 48.40118 8.26547 22856 ft 250 kts 170°
2026-05-06 16:06 48.38401 8.26964 22856 ft 250 kts 171°
2026-05-06 16:06 48.36681 8.27381 22856 ft 251 kts 171°
2026-05-06 16:06 48.34980 8.27793 22856 ft 251 kts 171°
2026-05-06 16:06 48.33260 8.28209 22859 ft 251 kts 171°
2026-05-06 16:07 48.31535 8.28627 22856 ft 251 kts 171°
2026-05-06 16:07 48.29813 8.29043 22859 ft 251 kts 171°
2026-05-06 16:07 48.28085 8.29461 22858 ft 251 kts 171°
2026-05-06 16:07 48.26362 8.29877 22858 ft 251 kts 171°
2026-05-06 16:08 48.24637 8.30293 22858 ft 251 kts 171°
2026-05-06 16:08 48.22912 8.30709 22859 ft 252 kts 171°
2026-05-06 16:08 48.21176 8.31127 22860 ft 253 kts 171°
2026-05-06 16:08 48.19434 8.31547 22858 ft 254 kts 171°
2026-05-06 16:09 48.17683 8.31968 22861 ft 255 kts 171°
2026-05-06 16:09 48.15932 8.32390 22857 ft 255 kts 171°
2026-05-06 16:09 48.14180 8.32817 22861 ft 255 kts 171°
2026-05-06 16:09 48.12430 8.33244 22858 ft 255 kts 171°
2026-05-06 16:10 48.10684 8.33668 22856 ft 254 kts 171°
2026-05-06 16:10 48.08963 8.34086 22856 ft 253 kts 171°
2026-05-06 16:10 48.07224 8.34508 22855 ft 253 kts 171°
2026-05-06 16:10 48.05485 8.34929 22856 ft 252 kts 171°
2026-05-06 16:11 48.03755 8.35348 22857 ft 252 kts 171°
2026-05-06 16:11 48.02025 8.35767 22859 ft 252 kts 171°
2026-05-06 16:11 48.00294 8.36186 22855 ft 252 kts 171°
2026-05-06 16:11 47.98566 8.36604 22858 ft 251 kts 171°
2026-05-06 16:12 47.96839 8.37021 22857 ft 251 kts 171°
2026-05-06 16:12 47.95115 8.37437 22858 ft 251 kts 171°
2026-05-06 16:12 47.93390 8.37853 22863 ft 250 kts 171°
2026-05-06 16:12 47.91673 8.38267 22863 ft 250 kts 171°
2026-05-06 16:13 47.89954 8.38681 22864 ft 250 kts 171°
2026-05-06 16:13 47.88234 8.39095 22867 ft 250 kts 171°
2026-05-06 16:13 47.86542 8.39502 22868 ft 249 kts 171°
2026-05-06 16:13 47.84829 8.39914 22868 ft 249 kts 171°
2026-05-06 16:14 47.83121 8.40323 22861 ft 249 kts 171°
2026-05-06 16:14 47.81412 8.40731 22866 ft 248 kts 172°
2026-05-06 16:14 47.79707 8.41138 22867 ft 248 kts 172°
2026-05-06 16:14 47.78003 8.41545 22866 ft 248 kts 172°
2026-05-06 16:15 47.76301 8.41952 22869 ft 248 kts 172°
2026-05-06 16:15 47.74597 8.42358 22866 ft 248 kts 172°
2026-05-06 16:15 47.72892 8.42765 22868 ft 248 kts 172°
2026-05-06 16:15 47.71184 8.43172 22871 ft 248 kts 172°
2026-05-06 16:16 47.69479 8.43577 22873 ft 248 kts 172°
2026-05-06 16:16 47.67770 8.43873 22874 ft 246 kts 176°
2026-05-06 16:16 47.66062 8.44121 22874 ft 246 kts 175°
2026-05-06 16:16 47.64356 8.44380 22873 ft 247 kts 175°
2026-05-06 16:17 47.62652 8.44635 22876 ft 246 kts 175°
2026-05-06 16:17 47.60960 8.44884 22872 ft 247 kts 176°
2026-05-06 16:17 47.59250 8.45135 22872 ft 247 kts 176°
2026-05-06 16:17 47.57543 8.45387 22876 ft 247 kts 176°
2026-05-06 16:18 47.55835 8.45639 22877 ft 247 kts 176°
2026-05-06 16:18 47.54127 8.45890 22872 ft 247 kts 176°
2026-05-06 16:18 47.52417 8.46142 22874 ft 246 kts 176°
2026-05-06 16:18 47.50705 8.46393 22879 ft 247 kts 176°
2026-05-06 16:19 47.48995 8.46645 22877 ft 247 kts 176°
2026-05-06 16:19 47.47278 8.46897 22877 ft 248 kts 176°
2026-05-06 16:19 47.45565 8.47149 22876 ft 248 kts 176°
2026-05-06 16:19 47.43842 8.47401 22878 ft 248 kts 176°
2026-05-06 16:20 47.42138 8.47651 22874 ft 249 kts 176°
2026-05-06 16:20 47.40419 8.47903 22882 ft 249 kts 176°
2026-05-06 16:20 47.38692 8.48156 22877 ft 249 kts 176°
2026-05-06 16:20 47.36965 8.48409 22878 ft 249 kts 176°
2026-05-06 16:21 47.35244 8.48660 22879 ft 248 kts 176°
2026-05-06 16:21 47.33529 8.48911 22881 ft 248 kts 176°
2026-05-06 16:21 47.31810 8.49161 22885 ft 248 kts 176°
2026-05-06 16:21 47.30090 8.49413 22882 ft 248 kts 176°
2026-05-06 16:22 47.28374 8.49663 22873 ft 247 kts 176°
2026-05-06 16:22 47.26659 8.49913 22872 ft 247 kts 177°
2026-05-06 16:22 47.24950 8.50162 22881 ft 247 kts 177°
2026-05-06 16:22 47.23241 8.50411 22882 ft 247 kts 177°
2026-05-06 16:23 47.21534 8.50660 22888 ft 247 kts 177°
2026-05-06 16:23 47.19823 8.50909 22898 ft 247 kts 177°
2026-05-06 16:23 47.18139 8.51155 22899 ft 246 kts 177°
2026-05-06 16:23 47.16433 8.51403 22903 ft 246 kts 177°
2026-05-06 16:24 47.14731 8.51650 22906 ft 246 kts 177°
2026-05-06 16:24 47.13030 8.51897 22895 ft 245 kts 177°
2026-05-06 16:24 47.11328 8.52144 22906 ft 245 kts 177°
2026-05-06 16:24 47.09626 8.52391 22901 ft 246 kts 177°
2026-05-06 16:25 47.07922 8.52638 22902 ft 246 kts 177°
2026-05-06 16:25 47.06212 8.52886 22904 ft 246 kts 177°
2026-05-06 16:25 47.04511 8.53133 22906 ft 245 kts 177°
2026-05-06 16:25 47.02843 8.53375 22902 ft 242 kts 178°
2026-05-06 16:26 47.01174 8.53616 22915 ft 241 kts 178°
2026-05-06 16:26 46.99497 8.53856 22912 ft 242 kts 178°
2026-05-06 16:26 46.97811 8.54099 22912 ft 244 kts 178°
2026-05-06 16:26 46.96125 8.54343 22908 ft 243 kts 178°
2026-05-06 16:27 46.94445 8.54586 22907 ft 240 kts 178°
2026-05-06 16:27 46.92782 8.54826 22904 ft 239 kts 178°
2026-05-06 16:27 46.91125 8.55064 22912 ft 240 kts 178°
2026-05-06 16:27 46.89477 8.55301 22909 ft 236 kts 178°
2026-05-06 16:28 46.87841 8.55536 22914 ft 236 kts 179°
2026-05-06 16:28 46.86218 8.55768 22910 ft 238 kts 179°
2026-05-06 16:28 46.84567 8.56005 22904 ft 238 kts 179°
2026-05-06 16:28 46.82921 8.56242 22912 ft 238 kts 179°
2026-05-06 16:29 46.81268 8.56479 22911 ft 239 kts 179°
2026-05-06 16:29 46.79601 8.56717 22902 ft 240 kts 179°
2026-05-06 16:29 46.77941 8.56956 22908 ft 239 kts 179°
2026-05-06 16:29 46.76278 8.57194 22915 ft 241 kts 179°
2026-05-06 16:30 46.75164 8.57352 22911 ft 243 kts 179°
2026-05-06 16:30 46.74028 8.57515 22905 ft 242 kts 179°
2026-05-06 16:30 46.71805 8.57833 22913 ft 244 kts 179°
2026-05-06 16:30 46.70116 8.58075 22900 ft 241 kts 180°
2026-05-06 16:31 46.68452 8.58314 22903 ft 239 kts 180°
2026-05-06 16:31 46.66794 8.58549 22910 ft 239 kts 180°
2026-05-06 16:31 46.65138 8.58784 22913 ft 239 kts 179°
2026-05-06 16:31 46.63486 8.59020 22905 ft 238 kts 180°
2026-05-06 16:32 46.61833 8.59255 22898 ft 238 kts 179°
2026-05-06 16:32 46.60206 8.59486 22902 ft 238 kts 180°
2026-05-06 16:32 46.58552 8.59722 22900 ft 238 kts 180°
2026-05-06 16:32 46.56878 8.59956 22491 ft 245 kts 180°
2026-05-06 16:33 46.55160 8.60197 22079 ft 250 kts 179°
2026-05-06 16:33 46.53420 8.60445 21675 ft 253 kts 179°
2026-05-06 16:33 46.51660 8.60696 21283 ft 255 kts 179°
2026-05-06 16:34 46.48132 8.61196 20515 ft 255 kts 179°
2026-05-06 16:34 46.46372 8.61445 20133 ft 254 kts 179°
2026-05-06 16:34 46.44617 8.61694 19756 ft 253 kts 179°
2026-05-06 16:34 46.42863 8.61941 19391 ft 253 kts 179°
2026-05-06 16:35 46.41100 8.62189 19024 ft 255 kts 179°
2026-05-06 16:35 46.39368 8.62434 18659 ft 251 kts 179°
2026-05-06 16:35 46.37638 8.62680 18301 ft 249 kts 179°
2026-05-06 16:35 46.35915 8.62922 17919 ft 250 kts 179°
2026-05-06 16:36 46.34176 8.63165 17509 ft 251 kts 179°
2026-05-06 16:36 46.32430 8.63411 17111 ft 253 kts 178°
2026-05-06 16:36 46.30679 8.63658 16717 ft 254 kts 178°
2026-05-06 16:36 46.28916 8.63906 16324 ft 254 kts 178°
2026-05-06 16:37 46.27155 8.64154 15935 ft 253 kts 179°
2026-05-06 16:37 46.25410 8.64399 15554 ft 252 kts 178°
2026-05-06 16:37 46.23664 8.64644 15176 ft 251 kts 178°
2026-05-06 16:37 46.21966 8.64882 14812 ft 251 kts 178°
2026-05-06 16:38 46.20254 8.65121 14452 ft 250 kts 178°
2026-05-06 16:38 46.18519 8.65365 14091 ft 252 kts 178°
2026-05-06 16:38 46.16770 8.65609 13731 ft 252 kts 178°
2026-05-06 16:38 46.15019 8.65854 13338 ft 252 kts 178°
2026-05-06 16:39 46.13272 8.66102 12932 ft 253 kts 177°
2026-05-06 16:39 46.11556 8.66777 12537 ft 258 kts 159°
2026-05-06 16:39 46.10055 8.68191 12155 ft 263 kts 142°
2026-05-06 16:39 46.08893 8.70257 11771 ft 266 kts 124°
2026-05-06 16:40 46.07956 8.72556 11393 ft 266 kts 123°
2026-05-06 16:40 46.07021 8.74858 11014 ft 266 kts 123°
2026-05-06 16:40 46.06083 8.77142 10621 ft 265 kts 123°
2026-05-06 16:40 46.05143 8.79425 10253 ft 264 kts 123°
2026-05-06 16:41 46.04209 8.81699 9888 ft 263 kts 123°
2026-05-06 16:41 46.03292 8.83929 9514 ft 262 kts 123°
2026-05-06 16:41 46.02290 8.86100 9111 ft 259 kts 133°
2026-05-06 16:41 46.00921 8.87792 8711 ft 256 kts 149°
2026-05-06 16:42 45.99333 8.88825 8322 ft 253 kts 164°
2026-05-06 16:42 45.97600 8.89184 7937 ft 252 kts 180°
2026-05-06 16:42 45.95878 8.88840 7557 ft 251 kts 195°
2026-05-06 16:42 45.94223 8.88037 7183 ft 250 kts 199°
2026-05-06 16:43 45.92578 8.87221 6809 ft 250 kts 198°
2026-05-06 16:43 45.90935 8.86422 6448 ft 248 kts 197°
2026-05-06 16:43 45.89281 8.85731 6077 ft 248 kts 195°
2026-05-06 16:43 45.87787 8.84566 5833 ft 244 kts 223°
2026-05-06 16:44 45.86885 8.82603 5920 ft 230 kts 242°
2026-05-06 16:44 45.86238 8.80543 5984 ft 223 kts 245°
2026-05-06 16:44 45.85421 8.78762 5987 ft 214 kts 219°
2026-05-06 16:44 45.84107 8.78000 6000 ft 202 kts 182°
2026-05-06 16:45 45.82809 8.78539 6002 ft 194 kts 144°
2026-05-06 16:45 45.82090 8.80083 6003 ft 188 kts 104°
2026-05-06 16:45 45.82260 8.81891 6000 ft 187 kts 62°
2026-05-06 16:45 45.83216 8.83064 6001 ft 180 kts 19°
2026-05-06 16:46 45.84359 8.83383 6001 ft 153 kts
2026-05-06 16:46 45.85315 8.83623 5988 ft 129 kts 18°
2026-05-06 16:46 45.86113 8.84020 5981 ft 115 kts 20°
2026-05-06 16:46 45.86824 8.84388 5988 ft 105 kts 22°
2026-05-06 16:47 45.87536 8.84806 5998 ft 115 kts 23°
2026-05-06 16:47 45.88284 8.85243 6001 ft 115 kts 24°
2026-05-06 16:47 45.88986 8.85720 5889 ft 108 kts 29°
2026-05-06 16:47 45.89657 8.86196 5662 ft 102 kts 26°
2026-05-06 16:48 45.90342 8.86442 5342 ft 102 kts
2026-05-06 16:48 45.91025 8.86602 5107 ft 100 kts
2026-05-06 16:48 45.91717 8.86786 4778 ft 103 kts 12°
2026-05-06 16:48 45.92405 8.87104 4460 ft 103 kts 22°
2026-05-06 16:49 45.93078 8.87466 4107 ft 103 kts 18°
2026-05-06 16:49 45.93761 8.87767 3757 ft 103 kts 15°
2026-05-06 16:49 45.94447 8.88026 3426 ft 99 kts 15°
2026-05-06 16:49 45.95106 8.88323 3105 ft 98 kts 21°
2026-05-06 16:50 45.95721 8.88676 2813 ft 95 kts 24°
2026-05-06 16:50 45.96327 8.89020 2557 ft 92 kts 21°
2026-05-06 16:50 45.96925 8.89334 2291 ft 90 kts 13°
2026-05-06 16:50 45.97522 8.89611 2044 ft 89 kts 16°
2026-05-06 16:51 45.98110 8.89899 1769 ft 90 kts 15°
2026-05-06 16:51 45.98698 8.90193 1473 ft 90 kts 17°
2026-05-06 16:51 45.99285 8.90499 1196 ft 89 kts 17°
2026-05-06 16:51 45.99869 8.90787 946 ft 87 kts 16°
2026-05-06 16:52 46.00360 8.91027 921 ft 61 kts 18°
2026-05-06 16:52 46.00442 8.91066 921 ft 0 kts 24°
2026-05-06 16:52 46.00449 8.91049 924 ft 6 kts 250°
2026-05-06 16:52 46.00459 8.90983 920 ft 1 kts 289°
2026-05-06 16:53 46.00459 8.90982 920 ft 0 kts 289°
2026-05-06 16:55 46.00451 8.90960 923 ft 9 kts 204°
2026-05-06 16:56 46.00359 8.90912 920 ft 7 kts 198°
2026-05-06 16:56 46.00340 8.90904 922 ft 0 kts 197°
2026-05-06 16:56 46.00327 8.90897 920 ft 7 kts 214°
2026-05-06 16:56 46.00338 8.90809 921 ft 8 kts 289°
2026-05-06 16:57 46.00321 8.90787 920 ft 4 kts 199°
2026-05-06 16:57 46.00308 8.90781 921 ft 0 kts 199°